Vertical_Velocity
14 5 37 -4 -3 -0 3 0 -1 -2 4 6 14 12 4 10 -10 1 8 3 -8 -3 4 10 4 -9 8 -1 -7 8 3 5 3 3 -0 -1 -0 -0 -0 -3 -4 -5 -2 -1 1 3 2 -2 5 9 6 2 -1 -1
2 -1 32 9 3 3 4 7 7 4 6 7 5 4 12 -32 17 -0 -6 6 -0 -13 -1 6 2 -3 -0 7 -26 8 2 -3 -1 -0 2 0 1 2 -2 1 1 4 1 1 3 5 1 -0 -0 -2 -3 -1 -0 0
3 -4 -2 42 6 7 5 4 6 7 10 10 9 2 -9 -2 -21 -3 1 -2 -2 -8 7 -6 3 8 7 3 7 -16 2 -3 0 -2 -3 0 -0 1 -1 -1 0 3 -0 -0 3 2 -0 -0 -1 -2 -1 0 -2 -1
-2 2 5 4 8 4 5 2 5 2 1 -0 -2 -2 -6 -9 8 3 -17 1 -0 -8 -11 8 10 8 4 -1 -2 -1 -13 -6 -6 0 -1 -1 -1 1 1 1 1 -1 1 -2 -1 1 2 -0 0 -1 1 -1 -0 -1
3 -4 -3 13 13 7 5 6 7 2 1 1 -5 -5 -1 0 6 8 -1 -0 3 -12 -7 2 8 -2 3 8 -1 5 2 -5 -0 -1 -1 1 -0 2 1 2 1 -3 -5 -1 1 -3 -1 -1 -2 -2 0 1 1 -1
1 -0 1 -7 0 -1 -2 0 0 -1 -7 -8 -3 -6 6 7 7 2 -12 16 1 -16 -19 -2 1 5 5 7 1 0 2 -1 -3 -1 1 -0 -3 3 0 0 0 -0 -2 -1 1 -1 0 -1 0 0 0 -1 -1 -1
-4 -2 -6 3 6 6 0 2 1 -6 -0 -1 2 2 5 6 5 -4 -9 -10 9 2 -16 2 3 -5 3 -0 -3 -3 -3 -3 -1 -2 0 -0 2 0 0 1 2 0 1 0 1 -4 2 2 2 -1 -1 -2 -3 -3
-3 2 9 1 3 4 3 4 5 7 7 4 3 8 9 7 -2 -2 5 4 2 -10 -6 -3 5 0 -2 1 -0 -3 -0 -2 -3 2 -1 0 1 0 1 0 0 2 0 2 2 -0 -0 -2 -1 -1 -1 0 0 -0
-10 3 6 2 2 6 8 5 5 4 4 6 4 5 -3 -9 -6 4 1 -3 -3 -3 -4 -2 -5 2 -2 -1 -2 -1 -2 -1 -2 -0 1 3 2 0 3 1 -0 -1 2 -1 1 1 -0 0 -0 -1 -0 -0 -0 0
3 1 -2 -1 4 -0 -3 -1 1 1 0 -2 -4 -9 -6 -2 0 -3 0 2 -1 -2 -3 -2 -2 1 -4 -0 2 -1 0 -0 1 4 -2 2 0 -0 -0 1 2 1 2 -1 -1 2 0 2 0 -0 -0 -1 -2 -1
-2 -3 0 -1 -4 -4 -0 2 3 6 -0 -1 -6 -4 3 3 -0 -2 -3 -4 1 -0 0 1 -5 -6 1 -2 -0 -0 1 0 0 5 3 1 1 2 2 0 1 2 1 0 -3 -2 0 -0 0 0 -1 -1 0 0
1 2 -0 -2 -2 -1 4 -2 -3 1 -3 -4 -19 -3 -1 -2 -3 -7 0 0 -1 2 3 -3 5 -3 1 -1 -4 2 -1 2 2 -1 2 1 5 -0 1 1 1 0 -2 -4 -3 -1 -0 -1 -0 0 -0 0 0 -1
0 -1 -1 -4 -1 0 -1 -1 0 0 -3 3 -1 -5 1 -0 -1 -2 0 3 1 0 -0 0 2 -0 0 -1 -2 -1 -0 2 0 2 -1 3 1 0 0 0 0 0 1 1 0 -1 -1 -2 -2 -1 -0 -1 -1 -1
-0 -0 -0 0 1 -2 -1 4 -2 -2 -4 -5 -2 -2 -1 0 1 1 0 -1 2 -2 0 -1 -1 -2 -0 -2 0 -2 3 1 2 1 0 1 -1 -1 -1 -0 -1 0 -1 0 1 0 -0 -0 -1 -1 -2 -1 -0 -0
1 -0 1 2 -4 0 0 2 -3 -4 -5 -4 -5 1 -1 2 0 2 -1 -2 9 0 -4 -1 -3 -4 1 -2 -0 1 3 1 -2 -1 1 1 -1 -2 0 -1 -1 -1 -1 -2 -1 -1 -1 -1 -1 -1 -1 -1 -0 -1
2 -1 6 1 1 -1 1 -2 -3 -6 -4 -4 -4 -2 -1 -2 5 0 2 2 4 2 1 -2 -0 -1 1 -2 1 -0 -1 -1 1 0 0 -0 -0 0 -1 0 0 -0 -1 -2 -1 -0 -0 -0 -1 -1 -0 0 -0 -1
-4 -11 3 -2 -2 -3 -2 -6 -1 -7 -1 -2 1 -1 6 -2 3 2 -0 -1 1 2 -0 -1 -2 3 2 1 1 -0 -0 2 0 0 1 0 -1 -1 -1 -1 -0 -1 -1 0 -0 -1 -1 -0 -1 -1 1 -0 -1 -1
-8 -3 -1 -2 -2 -0 -6 -6 -3 -3 -1 -0 -2 3 0 2 1 1 0 -1 -1 -2 -1 1 -3 0 -1 -1 2 1 0 -1 0 1 1 -1 -1 -1 0 -0 -0 -0 -1 -1 -1 1 0 -1 -1 0 -1 -1 -1 -0
-13 -9 2 1 1 -0 -1 -2 -2 -3 3 1 1 -1 -1 1 0 1 1 1 -0 -1 -2 -1 -1 -0 1 -0 -0 0 -1 -1 -2 0 -1 0 1 0 0 -0 -0 -0 -0 -0 -0 0 -1 -2 -1 -0 -1 -1 -0 -1
-2 -5 0 -3 0 -4 -3 -1 -0 -3 1 2 -0 -2 -1 0 -0 -0 -1 -2 -2 -1 -1 -0 1 1 1 0 -0 -0 0 -1 -2 -2 -0 1 0 1 1 -0 -0 -1 0 -1 -1 -1 -1 -1 -1 -1 -1 -1 2 2
5 -1 3 1 -10 -6 -3 1 -1 -1 -0 -2 -1 2 -1 -0 -0 -0 0 -1 -1 -1 0 -0 0 -0 -1 -1 -0 -0 -1 -0 -1 1 -1 -2 -1 0 0 0 -0 -1 -2 -1 -0 -2 -1 0 -1 -2 -1 1 -1 -0
-6 -1 0 -1 -5 -2 -3 -1 0 -0 -3 -0 -0 1 -0 -0 -0 -1 -2 -1 -1 1 -0 0 -0 -1 -0 -0 -1 -1 -0 1 1 1 0 0 -3 -1 0 -1 -2 -1 -1 -1 -1 -1 -0 -1 -1 -1 -0 -0 -1 -1
-7 0 -5 -2 -4 -3 2 -1 -0 -1 -2 1 -0 -1 0 0 -1 -2 0 -1 -1 -1 -0 -0 -0 -0 -1 -0 -0 -0 0 1 1 0 0 1 0 1 0 -1 -1 -1 -1 -1 -1 -1 -1 -1 -1 -1 -2 -2 -1 0
-3 -8 -4 -2 -2 1 -1 -0 -1 -1 -0 -1 -1 1 0 1 -2 -0 -1 -1 -1 0 0 0 0 -1 -1 -0 0 0 0 1 0 1 1 1 -0 1 -0 -2 -0 -1 0 -1 -2 -1 -1 -0 -1 -1 -1 -1 -1 -1
-13 -2 -0 1 -1 -1 -1 0 1 -1 0 0 -0 1 1 -1 1 0 -1 -0 -1 -1 -1 -0 -0 1 2 2 0 -0 0 1 0 -1 1 2 -2 -1 -1 0 -1 -1 -1 -1 -0 -0 -1 -0 -1 -0 -1 -1 -0 -2
-2 0 1 -0 1 -1 -0 -1 -0 -0 -1 0 1 0 -1 1 1 -2 -1 -1 -1 -1 -2 -1 -0 0 0 1 -1 -1 -1 -1 0 2 -0 -0 1 1 -1 -3 -3 -1 -1 -1 -1 -1 -1 -1 -1 -0 -0 -1 -1 -1
-0 1 1 -0 0 -1 0 -0 -1 -1 -0 -1 -0 1 0 1 -1 -3 -3 -2 -1 -1 -1 -1 -1 0 1 -2 -2 -1 0 0 -0 -1 0 -1 -3 0 1 -1 -0 -2 -1 -1 -2 -1 -0 -1 -0 0 -1 -1 -1 -1
-0 0 -2 1 0 -0 -2 0 -0 -1 -0 -0 0 -1 -3 -4 -1 -1 -2 -1 1 -0 -0 -1 -2 -2 -2 -2 -1 -0 -1 -0 -1 -0 2 1 0 -0 -1 -1 -0 -1 -1 -1 -2 -0 -1 -0 -0 -1 -1 -1 -1 -0
0 -0 -1 0 -0 0 -0 -1 -1 1 -0 -2 -1 -0 -1 -1 -1 -1 -2 -0 -0 -0 -0 -0 -0 -1 -2 -2 -1 -0 2 -0 -3 -4 -0 -1 -2 -2 -1 -0 -1 -1 1 -1 -1 -0 -1 -0 -1 -1 -0 -0 -0 -1
0 -1 -1 -0 -0 0 1 -1 1 -0 -1 -2 0 0 -1 -2 -2 -1 -0 0 1 2 1 0 1 -0 -0 -1 -3 -2 -2 -2 -1 4 2 -2 -2 -1 -0 -0 -1 -1 -0 -1 -1 -1 -0 -0 -1 -1 -0 -1 -1 -1
-1 -1 -0 -0 0 -0 -1 -1 -0 1 1 -0 -0 -1 -0 -2 -2 -1 -0 1 1 2 1 -0 0 -0 -0 -3 -3 -2 -4 -3 -2 -1 -1 -1 -0 0 -0 -1 -2 -1 -1 -1 -1 -1 -1 -0 -1 -1 -0 -1 -1 -0
0 1 -0 0 1 0 1 2 -0 0 -1 -1 -0 -1 -1 -1 -1 1 -0 2 3 3 3 2 1 -1 2 1 1 1 1 5 -0 0 -1 -1 0 -1 -1 -0 -1 -0 -1 -1 -1 -1 0 -0 -1 -1 -1 -1 -0 -0
-1 -1 -1 -1 -0 0 -2 -1 -0 0 -1 0 1 -1 -0 -1 0 -0 -0 0 1 1 1 4 4 1 3 4 3 3 1 1 1 1 0 -1 1 1 1 0 -0 -0 -1 -1 -1 -0 0 -0 -1 -1 -0 -0 -0 -0
Height
1238 1224 1215 1215 1218 1222 1229 1239 1251 1264 1279 1297 1315 1330 1345 1357 1366 1381 1384 1388 1394 1404 1416 1422 1425 1430 1436 1440 1445 1458 1465 1470 1473 1471 1472 1472 1473 1475 1478 1483 1494 1493 1490 1491 1494 1497 1491 1498 1501 1499 1501 1504 1506 1507
1242 1233 1225 1223 1227 1231 1238 1248 1259 1273 1288 1303 1318 1333 1345 1357 1370 1378 1383 1388 1392 1401 1416 1422 1425 1431 1436 1440 1443 1454 1455 1460 1466 1468 1473 1474 1475 1478 1474 1477 1491 1489 1489 1483 1488 1485 1496 1498 1499 1501 1502 1503 1504 1505
1251 1246 1239 1236 1239 1245 1252 1262 1272 1284 1297 1311 1323 1337 1351 1362 1371 1378 1382 1388 1393 1408 1422 1429 1433 1435 1438 1441 1444 1450 1458 1460 1463 1465 1470 1472 1472 1473 1476 1473 1481 1488 1490 1489 1492 1493 1493 1497 1498 1500 1501 1502 1502 1503
1262 1259 1255 1256 1255 1259 1266 1274 1284 1296 1307 1319 1333 1344 1355 1365 1373 1378 1383 1390 1395 1407 1422 1439 1436 1436 1439 1444 1447 1450 1452 1457 1461 1466 1468 1470 1471 1477 1472 1473 1473 1482 1486 1488 1491 1492 1494 1496 1497 1498 1499 1500 1501 1500
1273 1271 1271 1271 1273 1276 1282 1290 1298 1307 1318 1331 1341 1350 1360 1369 1374 1380 1386 1393 1398 1402 1422 1436 1438 1443 1446 1448 1449 1451 1454 1459 1463 1466 1470 1471 1474 1475 1477 1478 1475 1480 1480 1483 1479 1486 1489 1492 1495 1496 1498 1499 1499 1499
1283 1283 1285 1287 1290 1293 1298 1304 1312 1320 1330 1340 1349 1358 1366 1373 1379 1383 1391 1400 1401 1402 1416 1437 1450 1452 1450 1450 1451 1455 1459 1461 1464 1467 1471 1474 1476 1475 1475 1471 1475 1478 1481 1483 1484 1488 1489 1492 1494 1496 1497 1498 1498 1498
1292 1294 1296 1300 1304 1307 1312 1318 1324 1332 1341 1349 1357 1364 1371 1378 1383 1386 1393 1401 1405 1408 1419 1438 1450 1454 1453 1454 1458 1461 1462 1465 1468 1472 1473 1473 1476 1478 1477 1473 1476 1478 1481 1484 1486 1488 1491 1492 1494 1495 1496 1496 1496 1496
1302 1305 1307 1311 1315 1319 1324 1330 1336 1343 1350 1357 1363 1370 1376 1381 1386 1391 1397 1403 1406 1409 1419 1436 1451 1455 1457 1459 1461 1464 1466 1469 1471 1472 1474 1474 1478 1478 1475 1475 1478 1480 1482 1485 1487 1488 1488 1491 1493 1494 1495 1496 1496 1496
1310 1314 1318 1321 1325 1330 1334 1339 1344 1351 1357 1363 1369 1375 1380 1385 1392 1398 1402 1406 1408 1414 1421 1432 1439 1449 1457 1461 1463 1466 1468 1469 1473 1472 1473 1476 1473 1474 1475 1476 1479 1481 1483 1484 1487 1488 1490 1491 1493 1494 1495 1495 1495 1494
1318 1322 1327 1331 1334 1338 1343 1348 1353 1358 1363 1369 1375 1380 1388 1393 1397 1401 1407 1408 1411 1416 1423 1432 1437 1445 1453 1459 1463 1465 1467 1469 1469 1473 1476 1474 1469 1477 1478 1478 1479 1482 1483 1485 1487 1489 1491 1492 1492 1493 1494 1493 1493 1492
1325 1329 1334 1338 1342 1347 1351 1356 1360 1364 1368 1373 1378 1386 1393 1396 1400 1404 1409 1412 1417 1423 1428 1436 1438 1441 1453 1454 1460 1465 1467 1469 1466 1472 1472 1469 1469 1477 1479 1479 1481 1482 1483 1485 1486 1488 1490 1491 1492 1492 1492 1491 1491 1490
1331 1336 1341 1346 1350 1355 1359 1363 1367 1370 1372 1375 1379 1390 1395 1399 1403 1407 1417 1418 1416 1422 1430 1435 1440 1444 1451 1454 1459 1465 1465 1469 1465 1473 1471 1466 1471 1477 1479 1480 1482 1483 1484 1485 1487 1488 1489 1490 1491 1491 1491 1490 1489 1488
1338 1343 1347 1352 1358 1362 1366 1370 1373 1374 1376 1381 1386 1393 1399 1405 1405 1403 1415 1418 1419 1424 1430 1433 1440 1445 1450 1454 1460 1462 1463 1464 1469 1468 1462 1463 1473 1476 1479 1481 1483 1484 1486 1487 1488 1489 1489 1489 1490 1490 1489 1489 1488 1487
1346 1350 1355 1359 1364 1369 1373 1375 1377 1379 1382 1384 1390 1400 1403 1406 1408 1409 1408 1411 1420 1423 1428 1433 1439 1443 1450 1454 1459 1459 1467 1466 1465 1464 1460 1467 1472 1475 1478 1481 1483 1485 1486 1488 1489 1489 1489 1489 1489 1489 1488 1487 1487 1486
1353 1358 1362 1367 1371 1374 1378 1380 1381 1382 1385 1391 1397 1407 1413 1416 1416 1416 1417 1418 1422 1426 1430 1434 1440 1445 1451 1456 1458 1463 1466 1461 1458 1457 1462 1468 1471 1474 1477 1480 1483 1484 1485 1487 1488 1489 1489 1489 1489 1489 1488 1487 1486 1485
1359 1364 1369 1373 1376 1380 1382 1383 1384 1384 1392 1400 1409 1414 1418 1417 1419 1419 1421 1422 1426 1430 1432 1434 1440 1446 1452 1453 1454 1455 1453 1453 1457 1461 1465 1468 1470 1474 1476 1479 1481 1483 1485 1486 1487 1488 1489 1489 1488 1488 1487 1486 1485 1484
1365 1369 1375 1379 1382 1385 1387 1387 1388 1394 1403 1411 1418 1418 1418 1420 1423 1425 1426 1429 1430 1432 1436 1437 1440 1449 1453 1451 1453 1453 1454 1457 1461 1464 1465 1467 1469 1472 1475 1478 1481 1482 1484 1486 1487 1487 1488 1488 1488 1487 1487 1485 1484 1483
1370 1376 1381 1385 1388 1390 1390 1391 1398 1407 1416 1421 1422 1424 1424 1425 1428 1430 1431 1433 1434 1436 1439 1440 1444 1447 1447 1448 1450 1454 1458 1460 1462 1464 1466 1467 1470 1472 1475 1478 1480 1482 1483 1485 1486 1487 1487 1487 1487 1487 1486 1485 1484 1483
1377 1383 1388 1391 1393 1392 1395 1401 1405 1417 1424 1426 1427 1428 1429 1431 1434 1435 1435 1436 1438 1439 1440 1442 1444 1444 1447 1449 1451 1454 1456 1459 1461 1463 1465 1468 1470 1473 1475 1477 1479 1481 1482 1484 1485 1487 1487 1486 1487 1486 1486 1485 1485 1484
1384 1388 1393 1395 1396 1398 1404 1411 1414 1420 1427 1430 1432 1434 1435 1436 1438 1439 1439 1439 1441 1442 1443 1443 1445 1447 1449 1450 1451 1453 1455 1457 1459 1462 1466 1468 1470 1473 1475 1476 1478 1480 1482 1483 1484 1485 1485 1485 1485 1484 1484 1484 1484 1483
1390 1394 1398 1401 1401 1405 1411 1416 1420 1425 1429 1433 1436 1437 1439 1440 1441 1442 1442 1442 1443 1444 1444 1445 1446 1447 1449 1450 1451 1453 1454 1456 1459 1462 1463 1465 1468 1471 1473 1475 1477 1479 1481 1482 1484 1484 1485 1485 1484 1484 1484 1483 1481 1481
1393 1400 1403 1405 1408 1412 1418 1421 1424 1428 1433 1436 1438 1439 1441 1443 1444 1445 1444 1444 1444 1443 1444 1445 1446 1447 1448 1449 1450 1451 1453 1455 1457 1460 1461 1463 1465 1469 1472 1474 1476 1478 1480 1481 1482 1483 1484 1483 1483 1483 1482 1481 1481 1480
1401 1404 1406 1409 1412 1418 1427 1425 1428 1432 1435 1438 1439 1441 1444 1445 1446 1446 1445 1444 1442 1441 1442 1443 1444 1445 1446 1447 1449 1450 1452 1455 1457 1458 1460 1462 1465 1467 1470 1472 1475 1477 1478 1479 1481 1482 1482 1482 1482 1482 1481 1481 1480 1479
1405 1407 1411 1413 1418 1425 1427 1429 1431 1434 1437 1439 1440 1443 1445 1446 1446 1446 1443 1441 1439 1438 1439 1440 1441 1442 1444 1446 1448 1450 1451 1453 1455 1457 1458 1460 1463 1466 1469 1471 1474 1476 1478 1478 1479 1480 1480 1480 1480 1481 1480 1480 1479 1478
1410 1417 1417 1419 1421 1424 1427 1430 1433 1435 1438 1441 1443 1444 1446 1447 1445 1443 1440 1438 1437 1436 1436 1437 1438 1441 1444 1445 1446 1448 1450 1452 1453 1455 1457 1460 1461 1464 1467 1470 1472 1474 1475 1477 1477 1478 1478 1478 1478 1479 1479 1479 1478 1476
1411 1416 1418 1418 1421 1422 1426 1428 1431 1434 1437 1440 1442 1445 1446 1445 1445 1439 1438 1436 1435 1435 1434 1434 1436 1438 1441 1443 1444 1446 1448 1450 1452 1454 1456 1459 1462 1464 1466 1468 1471 1473 1474 1475 1475 1476 1476 1476 1476 1477 1477 1476 1476 1475
1412 1416 1416 1417 1419 1420 1425 1428 1430 1431 1434 1435 1438 1442 1442 1440 1437 1435 1434 1433 1433 1432 1432 1433 1434 1437 1440 1441 1443 1445 1447 1449 1451 1453 1455 1458 1460 1463 1466 1468 1470 1471 1472 1473 1473 1473 1474 1474 1474 1474 1475 1474 1474 1473
1413 1414 1414 1417 1418 1420 1423 1425 1426 1426 1427 1430 1435 1436 1434 1432 1430 1431 1431 1431 1430 1431 1432 1432 1434 1436 1437 1439 1441 1443 1445 1448 1450 1452 1455 1458 1460 1462 1464 1465 1467 1468 1469 1470 1471 1472 1472 1472 1473 1473 1473 1473 1472 1471
1412 1413 1415 1417 1418 1419 1420 1421 1421 1423 1425 1427 1428 1428 1429 1428 1428 1428 1429 1430 1430 1431 1431 1432 1433 1434 1436 1438 1440 1442 1445 1447 1449 1451 1453 1455 1457 1460 1461 1463 1465 1466 1467 1469 1469 1470 1471 1471 1471 1471 1472 1471 1471 1470
1412 1413 1415 1416 1417 1416 1419 1419 1421 1421 1422 1423 1424 1425 1425 1426 1426 1427 1427 1428 1428 1429 1429 1430 1431 1432 1434 1435 1437 1440 1443 1445 1448 1451 1452 1453 1455 1457 1459 1461 1463 1464 1466 1467 1468 1468 1469 1469 1470 1470 1470 1470 1469 1468
1411 1413 1415 1416 1417 1418 1417 1419 1419 1420 1421 1421 1422 1424 1424 1424 1424 1424 1424 1424 1424 1425 1425 1426 1427 1429 1431 1433 1435 1437 1440 1443 1445 1448 1450 1452 1454 1455 1457 1459 1461 1462 1464 1465 1466 1467 1467 1468 1468 1469 1468 1468 1467 1465
1411 1412 1414 1414 1417 1417 1418 1418 1419 1420 1419 1420 1421 1421 1422 1422 1422 1419 1417 1417 1417 1418 1420 1422 1424 1426 1429 1431 1433 1436 1438 1441 1444 1446 1448 1450 1452 1454 1456 1457 1459 1461 1462 1463 1464 1465 1466 1466 1467 1467 1466 1465 1464 1463
1413 1413 1414 1415 1416 1417 1418 1420 1420 1420 1420 1420 1419 1418 1418 1419 1418 1415 1413 1412 1413 1413 1415 1418 1420 1423 1426 1428 1431 1433 1436 1438 1441 1444 1446 1449 1451 1453 1454 1456 1457 1459 1461 1462 1463 1464 1465 1465 1465 1465 1464 1463 1461 1459